Regional Weather Roundup
Issued by NWS

Home | Current Version | Previous Version | Text Only | Print | Product List | Glossary On
Versions: 1 2 3 4 5 6 7 8 9 10 11 12 13 14 15 16 17 18 19 20 21 22 23 24 25 26 27 28 29 30 31 32 33 34 35 36 37 38 39 40 41 42 43 44 45 46 47 48 49 50
000
ASUS44 KLIX 011410
RWRLA
LOUISIANA WEATHER ROUNDUP
NATIONAL WEATHER SERVICE NEW ORLEANS LA
800 AM CST SUN FEB 01 2015

NOTE: "FAIR" INDICATES FEW OR NO CLOUDS BELOW 12,000 FEET WITH NO
      SIGNIFICANT WEATHER AND/OR OBSTRUCTIONS TO VISIBILITY.
      SKY/WX - SKY CONDITION AND SIGNIFICANT WEATHER.
      TMP - AIR TEMPERATURE.    DP   - DEWPOINT TEMPERATURE.
      RH  - RELATIVE HUMIDITY.  PRES - PRESSURE.
      HX  - HEAT INDEX.         WCI  - WIND CHILL INDEX.

*  THESE STATIONS ARE NOT NWS OR FAA STATIONS AND ARE NOT UNDER
   NWS QUALITY CONTROL.

LAZ040-048-061>063-065-066-069-011500-
SOUTHEAST LOUISIANA

CITY           SKY/WX    TMP DP  RH WIND       PRES   REMARKS
N.O. AUDUBON     N/A     61  61  99 MISG        N/A
N.O. INTL ARPT PTSUNNY   61  58  90 SE7       30.01R
N.O. LAKEFRONT CLOUDY    63  58  83 SE10      30.01F
N.O. DOWNTOWN* NOT AVBL
SLIDELL        CLOUDY    60  58  92 S6        30.03S
BATON ROUGE    CLOUDY    60  57  89 SE5       30.00R
BOOTHVILLE     CLOUDY    64  58  80 CALM      30.03S
BELLE CHASSE   CLOUDY    62  58  86 SE6       30.01F
BOGALUSA*        N/A     59  55  87 CALM      30.05R
GALLIANO*      RAIN      59  58  97 MISG      30.00F
NEW ROADS*     CLOUDY    58  57  94 SE6       30.00S
GONZALES*      PTSUNNY   60  60 100 CALM      30.01R
HAMMOND*       CLOUDY    59  57  94 SE6       30.02S
HOUMA*         NOT AVBL
PORT FOURCHON* PTSUNNY   64  63  94 E5        30.04F

$$

LAZ041-044-053-054-011500-
SOUTHWEST LOUISIANA

CITY           SKY/WX    TMP DP  RH WIND       PRES   REMARKS
LAKE CHARLES   PTSUNNY   56  56 100 CALM      29.96S FOG
LAFAYETTE      CLOUDY    60  59  96 CALM      29.99S FOG
PATTERSON      CLOUDY    61  57  88 CALM      30.00R
SALT POINT       N/A     61  60  97 SE5       29.99R
NEW IBERIA     CLOUDY    63  61  93 S7        29.99S
CHENAULT AIRPK CLOUDY    57  55  94 CALM      29.97S FOG

$$

LAZ027-028-011500-
CENTRAL LOUISIANA

CITY           SKY/WX    TMP DP  RH WIND       PRES   REMARKS
FORT POLK      CLOUDY    57  57 100 S7        29.95S
ALEXANDRIA INT CLOUDY    56  54  93 SE10      29.94F
ALEXANDRIA     CLOUDY    57  53  86 S5        29.96F

$$

LAZ001-002-011500-
NORTHWEST LOUISIANA

CITY           SKY/WX    TMP DP  RH WIND       PRES   REMARKS
SHREVEPORT     CLOUDY    58  56  93 S9        29.88F FOG
BARKSDALE AFB  CLOUDY    55  55 100 S9        29.88S
DTN SHREVEPORT CLOUDY    57  54  89 S9        29.89S FOG

$$

LAZ014-016-011500-
NORTHEAST LOUISIANA

CITY           SKY/WX    TMP DP  RH WIND       PRES   REMARKS
MONROE         CLOUDY    54  51  90 S9        29.93F
TALLULAH       CLOUDY    54  51  90 S12       29.96F

$$




USA.gov is the U.S. government's official web portal to all federal, state and local government web resources and services.